Flag for Netherlands Weather past 2 weeks in Almere, Netherlands

Now
50 °F

Passing clouds.


Feels Like: 43 °F
Forecast: 49 / 53 °F
Wind: 22 mph from Northwest

Location: Amsterdam Schiphol Airport

Current Time: Oct 21, 2014 at 9:18:18 PM

Latest Report: Oct 21, 2014 at 8:55 PM


Visibility: N/A

Pressure: 29.62 "Hg

Humidity: 71%

Dew point: 41 °F

Location of AlmereLocation

Historic Weather in Almere — Graph

°F

Almere temperature yesterday

Maximum temperature yesterday: 63 °F (at 12:55 PM)
Minimum temperature yesterday: 55 °F (at 11:25 PM)
Average temperature yesterday: 60 °F

Past Weeks' High & Low Weather Summary

 TemperatureHumidityPressure
High72 °F (Oct 18, 3:55 PM)100% (Oct 7, 4:55 AM)30.01 "Hg (Oct 7, 4:55 AM)
Low48 °F (Oct 8, 4:25 AM)6% (Oct 21, 5:25 PM)29.39 "Hg (Oct 7, 10:55 AM)
Average57 °F88%29.74 "Hg
* Reported Oct 6 7:25 PM — Oct 21 7:55 PM, Almere, Weather by CustomWeather, © 2014

Note: Actual official high and low records may vary slightly from our data, if they occured in-between our weather recording intervals... More about our weather records

Advertising

Almere weather history for previous 24 hours

 ConditionsComfort  
Time TempWeatherWind HumidityBarometerVisibility
7:55 PM
Oct 21
48 °FThunderstorms. Passing clouds.25 mph87%29.59 "Hg5 mi
7:25 PM50 °FThunderstorms. Passing clouds.17 mph76%29.59 "HgN/A
6:55 PM50 °FScattered clouds.30 mph71%29.56 "HgN/A
6:25 PM54 °FScattered clouds.22 mph30%29.53 "HgN/A
5:55 PM52 °FScattered clouds.23 mph72%29.53 "HgN/A
5:25 PM54 °FScattered clouds.28 mph6%29.50 "HgN/A
4:55 PM54 °FPassing clouds.29 mph77%29.50 "HgN/A
4:25 PM54 °FSprinkles. Scattered clouds.23 mph77%29.47 "HgN/A
3:55 PM54 °FSprinkles. Scattered clouds.21 mph77%29.47 "Hg6 mi
3:25 PM55 °FPassing clouds.28 mph67%29.45 "HgN/A
2:55 PM55 °FPassing clouds.24 mph72%29.45 "HgN/A
2:25 PM57 °FScattered clouds.29 mph82%29.42 "HgN/A
1:55 PM57 °FRain showers. Broken clouds.28 mph88%29.42 "Hg3 mi
1:25 PM55 °FDrizzle. Broken clouds.21 mph100%29.42 "Hg4 mi
12:55 PM55 °FLight rain. Partly sunny.25 mph94%29.45 "Hg5 mi
12:25 PM55 °FRain. Partly sunny.23 mph94%29.47 "Hg4 mi
11:55 AM55 °FRain. Broken clouds.24 mph94%29.50 "Hg4 mi
11:25 AM55 °FDrizzle. Broken clouds.25 mph94%29.50 "Hg4 mi
10:55 AM54 °FLight rain. Broken clouds.23 mph100%29.53 "Hg6 mi
10:25 AM54 °FLight rain. Broken clouds.23 mph100%29.56 "Hg6 mi
9:55 AM54 °FDrizzle. Broken clouds.20 mph100%29.59 "Hg3 mi
9:25 AM55 °FBroken clouds.22 mph94%29.59 "HgN/A
8:55 AM55 °FPartly cloudy.20 mph94%29.62 "HgN/A
8:25 AM55 °FPartly cloudy.18 mph94%29.65 "Hg2 mi
7:55 AM55 °FPassing clouds.17 mph94%29.65 "Hg6 mi
7:25 AM55 °FPartly cloudy.17 mph94%29.68 "HgN/A
6:55 AM55 °FPassing clouds.17 mph94%29.68 "HgN/A
6:25 AM55 °FPassing clouds.14 mph94%29.71 "HgN/A
5:55 AM55 °FPassing clouds.16 mph94%29.71 "HgN/A
4:55 AM55 °FPassing clouds.14 mph94%29.74 "HgN/A
4:25 AM57 °FPassing clouds.12 mph88%29.77 "HgN/A
3:55 AM57 °FPassing clouds.10 mph88%29.77 "HgN/A
3:25 AM57 °FPassing clouds.10 mph88%29.80 "HgN/A
2:55 AM57 °FPassing clouds.9 mph88%29.80 "HgN/A
2:25 AM57 °FPassing clouds.12 mph88%29.83 "HgN/A
1:55 AM57 °FPassing clouds.14 mph88%29.83 "HgN/A
1:25 AM57 °FSprinkles. Passing clouds.16 mph88%29.83 "HgN/A
12:55 AM57 °FPassing clouds.13 mph82%29.83 "HgN/A
12:25 AM57 °FSprinkles. Passing clouds.13 mph94%29.83 "HgN/A
11:55 PM
Oct 20
55 °FSprinkles. Passing clouds.8 mph100%29.86 "Hg5 mi
11:25 PM55 °FSprinkles. Passing clouds.12 mph100%29.86 "Hg4 mi
10:55 PM59 °FSprinkles. Passing clouds.9 mph82%29.86 "HgN/A
10:25 PM59 °FPassing clouds.9 mph82%29.89 "HgN/A
9:55 PM57 °FScattered showers. Passing clouds.10 mph82%29.89 "HgN/A
9:25 PM57 °FPassing clouds.10 mph82%29.89 "HgN/A
Weather by CustomWeather, © 2014

See weather overviewHow to use our weather pages